{"data":{"norad_id":62215,"intl_designator":"2024-229Z","name":"STARLINK-32662","alt_names":[],"object_type":"PAYLOAD","status":"ACTIVE","operator":null,"country":"US","launch_date":"2024-12-04","launch_site_code":"AFETR","launch_vehicle":null,"mission":null,"orbit_class":"UNKNOWN","rcs_meters":null,"size_class":null,"mass_kg":null,"dimensions":null,"purposes":["comms"],"wikipedia_slug":null,"has_3d_model":false,"image_url":null,"decayed_at":null,"tle_current":{"epoch":"2026-09-21T08:32:13.036416Z","epoch_age_seconds":104292,"freshness":"FRESH","line1":"1 62215U 24229Z   26264.35570644  .00005941  00000+0  22522-3 0  9993","line2":"2 62215  43.0014 245.8920 0001400 270.6963  89.3728 15.27583185100483","mean_motion":15.27583185,"eccentricity":0.00014,"inclination_deg":43.0014,"raan_deg":245.892,"arg_perigee_deg":270.6963,"mean_anomaly_deg":89.3728,"bstar":0.00022522,"rev_number":10048,"period_min":94.266552168156,"perigee_km":482.07899430216,"apogee_km":484.00012373869,"semimajor_km":6861.1765590204,"source":"CELESTRAK","updated_at":"2026-09-22T09:00:49.543844Z"}}}